Погода в Бостоне

США     42°21′21″N   71°04′25″W
темп.,
°C
ветер,
м/с
пор.,
м/с
влажн.,
%
обл.,
%
осадки,
мм/ч
давл.,
гПа
погр.,
м
31 июля, сб
сб3123:00+18сз49550 0.0 10121015
02:00+15зсз410562 0.0 1012718
05:00+14зсз411552 0.0 1013506
08:00+16зсз59500 0.0 1014556
11:00+21зсз45405 0.0 10141349
14:00+24з35345 0.0 10131576
17:00+24зсз35335 0.0 10121723
20:00+20з24505 0.0 1013112
1 августа, вс
вс123:00+17з23623 0.0 101580
02:00+16зюз24655 0.0 1015111
05:00+15юз23695 0.0 101583
08:00+19юз24554 0.0 1016266
11:00+24юз35480 0.0 10151180
14:00+27ююз4544100 0.0 10131823
17:00+25ю684764 0.0 1013939
20:00+20ю51061100 0.0 1013511
2 августа, пн
пн223:00+18ю3985100 0.3 1012325
02:00+17ю2796100 2.6 1009345
05:00+17зюз119765 0.9 100846
08:00+19з249481 1.7 1008251
11:00+22зсз357514 0.4 1008808
14:00+27з364257 0.4 10081851
17:00+24ссз465139 0.0 10101131
20:00+22ссз59510 0.0 1013663
3 августа, вт
вт323:00+18ссз27610 0.0 1016243
02:00+17зсз24640 0.0 1017103
05:00+16сз2266100 0.0 101764
08:00+19зсз1155100 0.0 1019203
11:00+22ю0143100 0.0 1020808
14:00+24юз1343100 0.0 10191142
17:00+24юз2348100 0.0 10181096
20:00+21ю3663100 0.0 1018199
4 августа, ср
ср423:00+19ююз3868100 0.0 1019255
02:00+18юз3869100 0.0 1019265
05:00+17юз3775100 0.0 1020185
08:00+19зюз2467100 0.0 1021265
11:00+23ююз2256100 0.0 1022672
14:00+25ююв2250100 0.0 10211195
17:00+26ююв234778 0.0 10211376
20:00+21ююв3774100 0.0 1022315